Deville, LA

7:21 AM CST on February 10, 2016 (GMT -0600)
Alexandria Esler Regional

Weather History for KESF - September, 2013

Change the Weather History Date:

Saturday, September 7, 2013

  Actual Average Record
Temperature  
Mean Temperature 83 °F -  
Max Temperature 98 °F 88 °F 98 °F (2012)
Min Temperature 70 °F 68 °F 48 °F (2011)
Cooling Degree Days 18    
Growing Degree Days 33 (Base 50)    
Moisture  
Dew Point 70 °F    
Average Humidity 76    
Maximum Humidity 94    
Minimum Humidity 35    
Precipitation  
Precipitation 0.00 in - - ()
Sea Level Pressure  
Sea Level Pressure 30.00 in    
Wind  
Wind Speed 1 mph (SSE)    
Max Wind Speed 7 mph    
Max Gust Speed -    
Visibility 7 miles    
Events      
Averages and records for this station are not official NWS values.
T = Trace of Precipitation, MM = Missing Value Source: NWS Daily Summary

Daily Weather History Graph

Daily Weather History Graph

Search for Another Location

Airport or City:

Trip Planner

Search our weather history database for the weather conditions in past years. The results will help you decide how hot, cold, wet, or windy it might be!

Date:

Astronomy

Sep. 07, 2013 Rise Set
Actual Time 6:48 AM CDT 7:24 PM CDT
Civil Twilight 6:24 AM CDT 7:49 PM CDT
Nautical Twilight 5:55 AM CDT 8:18 PM CDT
Astronomical Twilight 5:26 AM CDT 8:47 PM CDT
Moon 8:51 AM CDT (9/7) 8:37 PM CDT (9/7)
Length of Visible Light 13h 25m
Length of Day
12h 36m
Waxing Crescent, 5% of the Moon is Illuminated
Sep 7
Waxing Crescent
Sep 12
First Quarter
Sep 19
Full
Sep 26
Last Quarter
Oct 4
New

Hourly Weather History & Observations

Time (CDT) Temp. Heat Index Dew Point Humidity Pressure Visibility Wind Dir Wind Speed Gust Speed Precip Events Conditions
12:53 AM 73.9 °F - 71.1 °F 91% 30.01 in 10.0 mi Calm Calm - N/A   Clear
1:53 AM 73.0 °F - 70.0 °F 90% 30.00 in 3.0 mi Calm Calm - N/A   Clear
1:56 AM 73.4 °F - 69.8 °F 88% 30.00 in 1.8 mi Calm Calm - N/A   Clear
2:20 AM 73.4 °F - 69.8 °F 88% 30.00 in 3.0 mi Calm Calm - N/A   Clear
2:31 AM 71.6 °F - 69.8 °F 94% 30.00 in 1.8 mi Calm Calm - N/A   Clear
2:35 AM 71.6 °F - 69.8 °F 94% 30.00 in 2.0 mi Calm Calm - N/A   Partly Cloudy
2:44 AM 73.4 °F - 69.8 °F 88% 30.00 in 8.0 mi Calm Calm - N/A   Clear
2:53 AM 73.0 °F - 70.0 °F 90% 29.99 in 9.0 mi Calm Calm - N/A   Clear
3:43 AM 71.6 °F - 69.8 °F 94% 30.00 in 1.5 mi Calm Calm - N/A   Clear
3:53 AM 72.0 °F - 69.1 °F 91% 29.99 in 2.0 mi Calm Calm - N/A   Clear
4:01 AM 71.6 °F - 69.8 °F 94% 30.00 in 6.0 mi Calm Calm - N/A   Clear
4:19 AM 71.6 °F - 69.8 °F 94% 30.00 in 2.5 mi Calm Calm - N/A   Clear
4:26 AM 71.6 °F - 68.0 °F 88% 30.00 in 6.0 mi Calm Calm - N/A   Clear
4:36 AM 71.6 °F - 68.0 °F 88% 30.01 in 1.8 mi Calm Calm - N/A   Clear
4:53 AM 72.0 °F - 69.1 °F 91% 30.01 in 6.0 mi Calm Calm - N/A   Clear
5:53 AM 70.0 °F - 68.0 °F 93% 30.03 in 7.0 mi Calm Calm - N/A   Clear
6:53 AM 70.0 °F - 68.0 °F 93% 30.04 in 4.0 mi Calm Calm - N/A   Clear
7:53 AM 73.9 °F - 71.1 °F 91% 30.05 in 10.0 mi Calm Calm - N/A   Clear
8:53 AM 81.0 °F 85.8 °F 73.0 °F 77% 30.06 in 10.0 mi Calm Calm - N/A   Clear
9:53 AM 87.1 °F 95.4 °F 73.9 °F 65% 30.06 in 10.0 mi Calm Calm - N/A   Clear
10:53 AM 89.1 °F 98.0 °F 73.9 °F 61% 30.06 in 10.0 mi Variable 3.5 mph - N/A   Clear
11:53 AM 91.0 °F 97.6 °F 71.1 °F 52% 30.06 in 10.0 mi ESE 4.6 mph - N/A   Clear
12:53 PM 91.9 °F 98.4 °F 71.1 °F 50% 30.04 in 10.0 mi SE 3.5 mph - N/A   Clear
1:53 PM 93.0 °F 97.4 °F 68.0 °F 44% 30.01 in 10.0 mi Calm Calm - N/A   Partly Cloudy
2:53 PM 96.1 °F 99.9 °F 66.9 °F 38% 29.98 in 10.0 mi Variable 4.6 mph - N/A   Clear
3:53 PM 96.1 °F 98.3 °F 64.0 °F 35% 29.95 in 10.0 mi Variable 6.9 mph - N/A   Clear
4:53 PM 96.1 °F 99.3 °F 66.0 °F 37% 29.94 in 10.0 mi Variable 3.5 mph - N/A   Clear
5:53 PM 93.9 °F 97.5 °F 66.9 °F 41% 29.95 in 10.0 mi ESE 4.6 mph - N/A   Clear
6:53 PM 87.1 °F 93.6 °F 72.0 °F 61% 29.96 in 10.0 mi Calm Calm - N/A   Clear
7:53 PM 81.0 °F 84.9 °F 71.1 °F 72% 29.96 in 10.0 mi Calm Calm - N/A   Clear
8:53 PM 81.0 °F 84.1 °F 69.1 °F 67% 29.98 in 10.0 mi SW 3.5 mph - N/A   Clear
9:53 PM 78.1 °F - 69.1 °F 74% 29.99 in 10.0 mi SW 4.6 mph - N/A   Clear
10:53 PM 75.9 °F - 69.1 °F 79% 29.99 in 9.0 mi Calm Calm - N/A   Clear
11:53 PM 73.9 °F - 69.1 °F 85% 29.99 in 10.0 mi Calm Calm - N/A   Clear